Date String (YYYY-MM-DD hh:mm:ss) UTC,Instrument flags,Ambient pressure (hPa),Sample flow (lpm),Bypass flow (lpm),Sample temperature (°C),Ambient temperature (°C),ASC tube jacket temperature (°C),LED temperature (°C),Box temperature (°C),Sample RH (%),Span deviation,Mass concentration (μg/m³),Mass concentration (μg/m³),Mass concentration (μg/m³)
DateTimeUTC,F1_M11,P_M11,Q1_M11,Q2_M11,T1_M11,T2_M11,T3_M11,T4_M11,T5_M11,U1_M11,ZSPAN_M11,X0_M11,X2_M11,X1_M11
2021-08-20 23:00:00,,0825.5,5.01,0.00,29.3,25.9,00.0,38.5,30.7,17.2,0002.6,0018.90,0013.99,0013.38
2021-08-20 23:01:00,,0825.5,4.99,0.00,29.2,26.3,00.0,38.4,30.8,17.2,0002.7,0018.75,0013.95,0013.37
2021-08-20 23:02:00,,0825.5,5.00,0.00,29.2,26.8,00.0,38.4,30.8,17.4,0002.7,0018.58,0013.90,0013.34
2021-08-20 23:03:00,,0825.5,4.99,0.00,29.2,27.2,00.0,38.4,30.9,17.3,0002.7,0017.96,0013.89,0013.34
2021-08-20 23:04:00,,0825.6,5.01,0.00,29.2,27.5,00.0,38.4,31.0,17.0,0002.7,0017.87,0013.91,0013.37
2021-08-20 23:05:00,,0825.6,5.00,0.00,29.3,27.8,00.0,38.4,31.1,17.9,0002.5,0017.98,0013.95,0013.40
2021-08-20 23:06:00,,0825.6,4.99,0.00,29.3,28.0,00.0,38.4,31.2,17.4,0002.4,0018.19,0013.96,0013.41
2021-08-20 23:07:00,,0825.6,5.00,0.00,29.4,28.2,00.0,38.4,31.2,17.3,0002.5,0018.18,0013.98,0013.44
2021-08-20 23:08:00,,0825.6,5.00,0.00,29.4,28.4,00.0,38.4,31.3,16.9,0002.4,0018.24,0014.01,0013.47
2021-08-20 23:09:00,,0825.6,5.01,0.00,29.4,28.5,00.0,38.4,31.3,16.8,0002.3,0018.32,0014.07,0013.52
2021-08-20 23:10:00,,0825.6,5.00,0.00,29.5,28.6,00.0,38.5,31.4,17.1,0002.4,0018.38,0014.13,0013.59
2021-08-20 23:11:00,,0825.6,5.00,0.00,29.5,28.7,00.0,38.5,31.4,17.1,0002.3,0018.62,0014.22,0013.65
2021-08-20 23:12:00,,0825.6,5.01,0.00,29.6,28.8,00.0,38.5,31.5,16.8,0002.3,0018.70,0014.28,0013.73
2021-08-20 23:13:00,,0825.6,4.99,0.00,29.6,28.9,00.0,38.6,31.5,17.0,0002.2,0018.78,0014.38,0013.83
2021-08-20 23:14:00,,0825.6,5.01,0.00,29.6,27.9,00.0,38.6,31.3,16.4,0002.3,0019.21,0014.48,0013.94
2021-08-20 23:15:00,,0825.6,5.00,0.00,29.5,25.9,00.0,38.5,30.7,16.8,0002.3,0019.60,0014.60,0014.05
2021-08-20 23:16:00,,0825.6,5.00,0.00,29.3,25.6,00.0,38.5,30.6,16.8,0002.4,0019.61,0014.70,0014.16
2021-08-20 23:17:00,,0825.5,4.99,0.00,29.3,26.1,00.0,38.5,30.7,17.2,0002.5,0019.58,0014.82,0014.27
2021-08-20 23:18:00,,0825.6,5.00,0.00,29.2,26.5,00.0,38.4,30.8,17.1,0002.5,0019.69,0014.91,0014.35
2021-08-20 23:19:00,,0825.6,5.01,0.00,29.2,26.9,00.0,38.4,30.9,16.8,0002.7,0019.81,0015.01,0014.47
2021-08-20 23:20:00,,0825.6,5.01,0.00,29.2,27.3,00.0,38.4,31.0,16.9,0002.6,0020.00,0015.12,0014.57
2021-08-20 23:21:00,,0825.7,4.98,0.00,29.3,27.6,00.0,38.4,31.0,16.7,0002.6,0020.07,0015.17,0014.61
2021-08-20 23:22:00,,0825.7,5.01,0.00,29.3,27.9,00.0,38.4,31.1,17.2,0002.7,0020.19,0015.28,0014.71
2021-08-20 23:23:00,,0825.7,5.00,0.00,29.3,28.1,00.0,38.4,31.2,17.0,0002.6,0020.55,0015.36,0014.78
2021-08-20 23:24:00,,0825.7,5.00,0.00,29.4,28.3,00.0,38.4,31.2,17.3,0002.7,0020.74,0015.38,0014.80
2021-08-20 23:25:00,,0825.9,5.01,0.00,29.4,28.4,00.0,38.4,31.3,16.8,0002.7,0020.67,0015.42,0014.82
2021-08-20 23:26:00,,0825.9,4.99,0.00,29.5,28.6,00.0,38.4,31.3,16.9,0002.6,0020.52,0015.38,0014.82
2021-08-20 23:27:00,,0825.9,5.00,0.00,29.5,28.7,00.0,38.5,31.4,16.9,0002.5,0020.60,0015.40,0014.82
2021-08-20 23:28:00,,0825.9,5.00,0.00,29.6,28.8,00.0,38.5,31.5,16.8,0002.6,0020.64,0015.41,0014.84
2021-08-20 23:29:00,,0825.9,5.00,0.00,29.6,28.9,00.0,38.5,31.5,17.1,0002.4,0020.73,0015.45,0014.86
2021-08-20 23:30:00,,0825.9,5.01,0.00,29.7,28.9,00.0,38.6,31.6,17.0,0002.3,0020.70,0015.45,0014.87
2021-08-20 23:31:00,,0825.9,4.98,0.00,29.7,28.1,00.0,38.6,31.3,17.1,0002.2,0021.08,0015.44,0014.88
2021-08-20 23:32:00,,0825.9,5.00,0.00,29.5,26.0,00.0,38.5,30.8,16.7,0002.1,0021.21,0015.48,0014.93
2021-08-20 23:33:00,,0825.9,4.99,0.00,29.4,25.6,00.0,38.5,30.7,17.0,0002.2,0021.50,0015.52,0014.98
2021-08-20 23:34:00,,0825.9,5.01,0.00,29.3,26.0,00.0,38.5,30.7,16.8,0002.2,0021.35,0015.59,0015.05
2021-08-20 23:35:00,,0825.9,5.00,0.00,29.2,26.5,00.0,38.4,30.8,16.6,0002.3,0021.67,0015.69,0015.17
2021-08-20 23:36:00,,0825.9,5.01,0.00,29.2,26.9,00.0,38.4,30.9,17.0,0002.3,0021.59,0015.77,0015.27
2021-08-20 23:37:00,,0825.9,4.99,0.00,29.3,27.3,00.0,38.4,31.0,17.3,0002.2,0021.68,0015.87,0015.34
2021-08-20 23:38:00,,0825.9,5.01,0.00,29.3,27.6,00.0,38.4,31.0,16.9,0002.3,0021.73,0015.92,0015.40
2021-08-20 23:39:00,,0826.0,4.99,0.00,29.3,27.9,00.0,38.4,31.1,17.1,0002.3,0021.87,0016.01,0015.47
2021-08-20 23:40:00,,0825.9,4.99,0.00,29.4,28.1,00.0,38.4,31.2,17.4,0002.5,0021.86,0016.06,0015.53
2021-08-20 23:41:00,,0826.0,5.02,0.00,29.4,28.3,00.0,38.4,31.3,16.4,0002.5,0022.10,0016.18,0015.60
2021-08-20 23:42:00,,0826.0,4.99,0.00,29.4,28.5,00.0,38.4,31.3,16.3,0002.5,0021.90,0016.34,0015.75
2021-08-20 23:43:00,,0826.0,4.99,0.00,29.5,28.6,00.0,38.5,31.4,16.4,0002.7,0021.97,0016.47,0015.89
2021-08-20 23:44:00,,0826.0,5.01,0.00,29.5,28.7,00.0,38.5,31.4,16.4,0002.6,0021.77,0016.56,0015.98
2021-08-20 23:45:00,,0826.0,4.99,0.00,29.6,28.8,00.0,38.5,31.5,16.2,0002.7,0021.93,0016.68,0016.08
2021-08-20 23:46:00,,0826.1,5.01,0.00,29.6,28.9,00.0,38.5,31.5,16.4,0002.4,0021.72,0016.77,0016.16
2021-08-20 23:47:00,,0826.2,4.99,0.00,29.6,28.1,00.0,38.6,31.3,16.5,0002.4,0021.81,0016.86,0016.23
2021-08-20 23:48:00,,0826.2,5.00,0.00,29.5,26.0,00.0,38.5,30.7,16.5,0002.5,0021.89,0016.95,0016.34
2021-08-20 23:49:00,,0826.2,4.99,0.00,29.3,25.5,00.0,38.5,30.5,16.5,0002.4,0022.01,0017.05,0016.44
2021-08-20 23:50:00,,0826.2,5.01,0.00,29.2,26.0,00.0,38.5,30.7,17.0,0002.3,0022.06,0017.11,0016.50
2021-08-20 23:51:00,,0826.2,5.00,0.00,29.2,26.4,00.0,38.4,30.7,16.7,0002.2,0022.16,0017.19,0016.59
2021-08-20 23:52:00,,0826.2,5.00,0.00,29.2,26.9,00.0,38.4,30.9,16.4,0002.3,0022.18,0017.22,0016.64
2021-08-20 23:53:00,,0826.2,4.98,0.00,29.2,27.3,00.0,38.4,30.9,16.6,0002.4,0022.22,0017.19,0016.62
2021-08-20 23:54:00,,0826.1,5.01,0.00,29.2,27.6,00.0,38.4,31.0,16.7,0002.3,0022.15,0017.19,0016.63
2021-08-20 23:55:00,,0826.2,4.99,0.00,29.3,27.8,00.0,38.4,31.1,16.4,0002.3,0022.47,0017.22,0016.68
2021-08-20 23:56:00,,0826.2,5.00,0.00,29.3,28.1,00.0,38.4,31.2,17.1,0002.2,0022.60,0017.26,0016.72
2021-08-20 23:57:00,,0826.2,5.01,0.00,29.4,28.3,00.0,38.4,31.2,17.0,0002.2,0022.61,0017.29,0016.73
2021-08-20 23:58:00,,0826.2,5.00,0.00,29.4,28.4,00.0,38.4,31.3,16.7,0002.2,0022.74,0017.37,0016.75
2021-08-20 23:59:00,,0826.2,5.01,0.00,29.5,28.6,00.0,38.4,31.4,16.4,0002.2,0022.91,0017.46,0016.82
